Location: Unspecified
(49.8670°N, 0.0000°E)
Time: 01:31:48
(UTC+00:00)

Courier 1B Rocket - Visible Passes

Search period start: 25 June 2019 00:00
Search period end: 05 July 2019 00:00
Orbit: 920 x 1202 km, 28.2° (Epoch: 24 June)

Date Brightness Start Highest point End Pass type
(mag) Time Alt. Az. Time Alt. Az. Time Alt. Az.
29 Jun 7.0 02:23:35 10° S 02:25:35 11° S 02:27:39 10° SSE visible
30 Jun 6.9 03:14:25 10° SSW 03:16:58 12° S 03:19:28 10° SSE visible
01 Jul 6.9 02:14:57 12° S 02:16:17 12° S 02:19:07 10° SSE visible
02 Jul 7.1 01:17:34 11° SSE 01:17:34 11° SSE 01:18:17 10° SSE visible
02 Jul 6.9 03:05:18 10° SSW 03:07:39 12° S 03:09:58 10° S visible
03 Jul 6.9 02:06:41 13° S 02:06:59 13° S 02:10:01 10° SSE visible
04 Jul 7.0 02:57:03 10° SSW 02:58:19 10° SSW 02:59:34 10° S visible
